GW2586 Weather Reports


Display with metric or nautical units.
time (UTC)temp
F
wind
direction
speed
MPH
gust
MPH
rain 1hr
in
rain 24hr
in
rain mn
in
humidity
%
barometer
mb
20260506153059 61 134 2.0 6.0 0.01 0.01 0.01 87 1008.2
20260506151544 61 271 1.0 7.0 0.00 0.00 0.00 87 1008.2
20260506150049 61 248 2.0 10.0 0.00 0.00 0.00 85 1008.5
20260506144538 62 269 4.0 9.0 0.00 0.00 0.00 83 1008.6
20260506143037 62 200 4.0 12.0 0.00 0.00 0.00 82 1008.8
20260506141539 62 223 4.0 14.0 0.00 0.00 0.00 81 1008.8
20260506140040 62 0 2.0 9.0 0.00 0.00 0.00 82 1008.7
20260506134539 62 0 3.0 11.0 0.00 0.00 0.00 82 1008.5
20260506133039 62 233 3.0 12.0 0.00 0.00 0.00 82 1008.6
20260506131541 62 199 1.0 8.0 0.00 0.00 0.00 83 1008.3
20260506130037 61 158 3.0 8.0 0.00 0.00 0.00 84 1008.5
20260506124544 60 259 3.0 13.0 0.00 0.00 0.00 84 1008.5
20260506123043 60 228 2.0 9.0 0.00 0.00 0.00 84 1008.7
20260506121542 60 294 1.0 11.0 0.00 0.00 0.00 84 1009.0
20260506120042 60 337 4.0 10.0 0.00 0.00 0.00 84 1008.9
20260506114540 60 259 2.0 8.0 0.00 0.00 0.00 84 1008.8
20260506113043 60 215 5.0 11.0 0.00 0.00 0.00 83 1008.7
20260506111540 60 293 2.0 11.0 0.00 0.00 0.00 83 1008.7
20260506110040 60 55 3.0 8.0 0.00 0.00 0.00 82 1008.6
20260506104537 60 210 0.0 8.0 0.00 0.00 0.00 82 1008.5
20260506103048 60 0 0.0 10.0 0.00 0.00 0.00 81 1008.5
20260506101540 60 197 2.0 13.0 0.00 0.00 0.00 80 1008.5
20260506100041 60 197 2.0 11.0 0.00 0.00 0.00 79 1008.4
20260506094542 60 245 1.0 6.0 0.00 0.00 0.00 78 1008.2
20260506093038 60 157 1.0 6.0 0.00 0.00 0.00 77 1008.2
20260506091550 61 61 2.0 7.0 0.00 0.00 0.00 75 1008.1
20260506090036 61 276 0.0 5.0 0.00 0.00 0.00 74 1008.2
20260506084544 61 278 1.0 8.0 0.00 0.00 0.00 72 1008.4
20260506083044 61 250 1.0 6.0 0.00 0.00 0.00 73 1008.5
20260506081538 62 49 0.0 4.0 0.00 0.00 0.00 72 1008.5
20260506073040 62 283 0.0 6.0 0.00 0.00 0.00 71 1008.6
20260506071544 62 274 0.0 4.0 0.00 0.00 0.00 70 1008.7
20260506061538 63 0 0.0 2.0 0.00 0.00 0.00 66 1009.1
20260506044542 65 232 2.0 6.0 0.00 0.00 0.00 61 1009.4
20260506043037 66 262 1.0 9.0 0.00 0.00 0.00 60 1009.3
20260506041542 66 210 2.0 8.0 0.00 0.00 0.00 59 1009.2
20260506040043 67 283 2.0 10.0 0.00 0.00 0.00 55 1009.1
20260506034552 68 139 1.0 9.0 0.00 0.00 0.00 51 1009.0
20260506033041 69 262 4.0 8.0 0.00 0.00 0.00 50 1008.9
20260506031539 69 269 3.0 8.0 0.00 0.00 0.00 49 1008.9
20260506030042 70 226 3.0 10.0 0.00 0.00 0.00 48 1008.9
20260506024600 70 284 3.0 9.0 0.00 0.00 0.00 46 1009.0
20260506023042 71 0 1.0 9.0 0.00 0.00 0.00 44 1009.1
20260506021540 71 262 2.0 9.0 0.00 0.00 0.00 44 1009.0
20260506020038 71 191 1.0 8.0 0.00 0.00 0.00 45 1009.0
20260506014538 72 256 3.0 8.0 0.00 0.00 0.00 44 1008.8
20260506013057 72 235 3.0 11.0 0.00 0.00 0.00 44 1008.6
20260506011544 72 226 6.0 14.0 0.00 0.00 0.00 43 1008.6
20260506010043 72 210 6.0 10.0 0.00 0.00 0.00 43 1008.3
20260506004541 73 165 4.0 11.0 0.00 0.00 0.00 43 1008.1
20260506003039 73 226 5.0 12.0 0.00 0.00 0.00 43 1007.8
20260506001539 72 133 5.0 13.0 0.00 0.00 0.00 43 1007.6
20260506000036 71 270 2.0 9.0 0.00 0.00 0.00 46 1007.4
20260505234538 69 0 0.0 1.0 0.00 0.00 0.00 55 1007.3
20260505233038 71 0 0.0 1.0 0.00 0.00 0.00 52 1007.3
20260505231543 73 221 3.0 7.0 0.00 0.00 0.00 46 1007.2
20260505230051 75 227 5.0 14.0 0.00 0.00 0.00 38 1007.0
20260505224541 75 178 8.0 14.0 0.00 0.00 0.00 37 1006.7
20260505223055 76 207 7.0 18.0 0.00 0.00 0.00 37 1006.7
20260505221540 76 203 8.0 18.0 0.00 0.00 0.00 36 1006.4
20260505220044 77 139 8.0 20.0 0.00 0.00 0.00 35 1006.2
20260505214540 78 184 9.0 18.0 0.00 0.00 0.00 34 1006.0
20260505213050 79 215 10.0 26.0 0.00 0.00 0.00 33 1006.2
20260505211538 78 150 8.0 22.0 0.00 0.00 0.00 34 1005.8
20260505210040 78 159 11.0 33.0 0.00 0.00 0.00 33 1005.6
20260505204540 78 209 13.0 22.0 0.00 0.00 0.00 33 1005.8
20260505203045 79 204 11.0 25.0 0.00 0.00 0.00 33 1006.1
20260505201542 78 253 11.0 25.0 0.00 0.00 0.00 33 1006.3
20260505200037 78 207 15.0 32.0 0.00 0.00 0.00 34 1005.9
20260505194540 79 186 8.0 22.0 0.00 0.00 0.00 36 1006.1
20260505193041 79 219 8.0 24.0 0.00 0.00 0.00 35 1006.4
20260505191538 79 197 10.0 23.0 0.00 0.00 0.00 36 1006.5
20260505190040 79 178 12.0 26.0 0.00 0.00 0.00 37 1006.6
20260505184538 78 196 12.0 27.0 0.00 0.00 0.00 36 1006.9
20260505183036 79 239 11.0 25.0 0.00 0.00 0.00 38 1006.8
20260505181543 78 253 12.0 37.0 0.00 0.00 0.00 36 1007.1
20260505180046 79 169 8.0 18.0 0.00 0.00 0.00 40 1007.0
20260505174541 79 225 11.0 22.0 0.00 0.00 0.00 41 1007.3
20260505173046 78 197 8.0 15.0 0.00 0.00 0.00 44 1007.4
20260505171538 77 20 5.0 18.0 0.00 0.00 0.00 45 1007.5
20260505170038 76 102 5.0 26.0 0.00 0.00 0.00 46 1007.8
20260505164550 76 169 7.0 20.0 0.00 0.00 0.00 47 1007.9
20260505163048 75 195 7.0 16.0 0.00 0.00 0.00 48 1008.1
20260505161540 74 235 6.0 23.0 0.00 0.00 0.00 50 1008.3